Saint Bonnet de Bellac- Haute Vienne - France
Donnes mto: mercredi, 21/12/2011
Date Horaire Temp. E. Hum. E. P.atmo. Pluie Vent Direction Direction Ensoleilleme Solaire P. de rose Temp au vent Rafales
21/12/2011 00:00 7,1 C 93 % 1023,4 hPa 0,0 mm 0,0 km/h (0 Bft) O 270 0 min 0 W/m 6,0 C 7,1 C 0,0 km/h (0 Bft)
21/12/2011 00:05 7,1 C 93 % 1023,4 hPa 0,0 mm 0,0 km/h (0 Bft) O 270 0 min 0 W/m 6,0 C 7,1 C 0,0 km/h (0 Bft)
21/12/2011 00:10 7,1 C 93 % 1023,3 hPa 0,0 mm 3,2 km/h (1 Bft) O-SO 247 0 min 0 W/m 6,0 C 7,1 C 3,6 km/h (1 Bft)
21/12/2011 00:15 7,1 C 93 % 1023,3 hPa 0,0 mm 1,4 km/h (1 Bft) O-SO 247 0 min 0 W/m 6,0 C 7,1 C 4,3 km/h (1 Bft)
21/12/2011 00:20 7,1 C 93 % 1023,5 hPa 0,0 mm 0,0 km/h (0 Bft) O-SO 247 0 min 0 W/m 6,0 C 7,1 C 9,7 km/h (2 Bft)
21/12/2011 00:25 7,1 C 93 % 1023,3 hPa 0,0 mm 0,4 km/h (0 Bft) O-SO 247 0 min 0 W/m 6,0 C 7,1 C 3,2 km/h (1 Bft)
21/12/2011 00:30 7,1 C 93 % 1023,2 hPa 0,0 mm 0,0 km/h (0 Bft) O-SO 247 0 min 0 W/m 6,0 C 7,1 C 0,0 km/h (0 Bft)
21/12/2011 00:35 7,1 C 93 % 1023,1 hPa 0,0 mm 1,1 km/h (1 Bft) O-SO 247 0 min 0 W/m 6,0 C 7,1 C 7,2 km/h (2 Bft)
21/12/2011 00:40 7,1 C 93 % 1023,0 hPa 0,0 mm 0,0 km/h (0 Bft) O-SO 247 0 min 0 W/m 6,0 C 7,1 C 0,0 km/h (0 Bft)
21/12/2011 00:45 7,1 C 93 % 1023,2 hPa 0,0 mm 0,0 km/h (0 Bft) O 270 0 min 0 W/m 6,0 C 7,1 C 0,0 km/h (0 Bft)
21/12/2011 00:50 7,1 C 94 % 1023,2 hPa 0,0 mm 0,0 km/h (0 Bft) O-SO 247 0 min 0 W/m 6,2 C 7,1 C 0,0 km/h (0 Bft)
21/12/2011 00:55 7,1 C 94 % 1023,1 hPa 0,0 mm 0,0 km/h (0 Bft) O-SO 247 0 min 0 W/m 6,2 C 7,1 C 4,3 km/h (1 Bft)
21/12/2011 01:00 7,1 C 94 % 1023,1 hPa 0,0 mm 0,0 km/h (0 Bft) O-SO 247 0 min 0 W/m 6,2 C 7,1 C 0,0 km/h (0 Bft)
21/12/2011 01:05 7,1 C 94 % 1023,1 hPa 0,0 mm 2,5 km/h (1 Bft) O-SO 247 0 min 0 W/m 6,2 C 7,1 C 8,3 km/h (2 Bft)
21/12/2011 01:10 7,1 C 94 % 1023,4 hPa 0,0 mm 1,4 km/h (1 Bft) NO 315 0 min 0 W/m 6,2 C 7,1 C 1,4 km/h (1 Bft)
21/12/2011 01:15 7,1 C 94 % 1023,2 hPa 0,0 mm 1,4 km/h (1 Bft) O-NO 292 0 min 0 W/m 6,2 C 7,1 C 9,0 km/h (2 Bft)
21/12/2011 01:20 7,0 C 94 % 1023,3 hPa 0,0 mm 0,4 km/h (0 Bft) O 270 0 min 0 W/m 6,1 C 7,0 C 0,4 km/h (0 Bft)
21/12/2011 01:25 7,0 C 94 % 1023,3 hPa 0,0 mm 0,0 km/h (0 Bft) O-SO 247 0 min 0 W/m 6,1 C 7,0 C 1,4 km/h (1 Bft)
21/12/2011 01:30 6,9 C 94 % 1023,4 hPa 0,1 mm 0,0 km/h (0 Bft) N 360 0 min 0 W/m 6,0 C 6,9 C 0,0 km/h (0 Bft)
21/12/2011 01:35 6,9 C 94 % 1023,3 hPa 0,0 mm 0,4 km/h (0 Bft) O-SO 247 0 min 0 W/m 6,0 C 6,9 C 0,4 km/h (0 Bft)
21/12/2011 01:40 6,9 C 94 % 1023,4 hPa 0,0 mm 0,4 km/h (0 Bft) O-SO 247 0 min 0 W/m 6,0 C 6,9 C 4,0 km/h (1 Bft)
21/12/2011 01:45 6,9 C 94 % 1023,3 hPa 0,1 mm 0,7 km/h (0 Bft) O-SO 247 0 min 0 W/m 6,0 C 6,9 C 0,7 km/h (0 Bft)
21/12/2011 01:50 6,9 C 94 % 1023,4 hPa 0,0 mm 0,0 km/h (0 Bft) O-SO 247 0 min 0 W/m 6,0 C 6,9 C 0,0 km/h (0 Bft)
21/12/2011 01:55 6,9 C 94 % 1023,5 hPa 0,0 mm 0,0 km/h (0 Bft) O-SO 247 0 min 0 W/m 6,0 C 6,9 C 0,0 km/h (0 Bft)
21/12/2011 02:02 6,9 C 94 % 1023,6 hPa 0,1 mm 0,0 km/h (0 Bft) O-SO 247 0 min 0 W/m 6,0 C 6,9 C 0,0 km/h (0 Bft)
21/12/2011 02:05 6,9 C 94 % 1023,4 hPa 0,0 mm 0,0 km/h (0 Bft) O-SO 247 0 min 0 W/m 6,0 C 6,9 C 0,0 km/h (0 Bft)
21/12/2011 02:10 6,9 C 94 % 1023,2 hPa 0,1 mm 0,0 km/h (0 Bft) O-SO 247 0 min 0 W/m 6,0 C 6,9 C 0,0 km/h (0 Bft)
21/12/2011 02:15 6,8 C 94 % 1023,3 hPa 0,0 mm 0,4 km/h (0 Bft) O-SO 247 0 min 0 W/m 5,9 C 6,8 C 4,7 km/h (1 Bft)
21/12/2011 02:20 6,8 C 94 % 1023,2 hPa 0,0 mm 0,4 km/h (0 Bft) SO 225 0 min 0 W/m 5,9 C 6,8 C 3,6 km/h (1 Bft)
21/12/2011 02:25 6,8 C 94 % 1023,2 hPa 0,1 mm 0,0 km/h (0 Bft) O-SO 247 0 min 0 W/m 5,9 C 6,8 C 3,6 km/h (1 Bft)
21/12/2011 02:30 6,8 C 94 % 1023,0 hPa 0,0 mm 2,2 km/h (1 Bft) SO 225 0 min 0 W/m 5,9 C 6,8 C 9,4 km/h (2 Bft)
21/12/2011 02:35 6,8 C 94 % 1023,2 hPa 0,0 mm 0,4 km/h (0 Bft) O-SO 247 0 min 0 W/m 5,9 C 6,8 C 4,0 km/h (1 Bft)
21/12/2011 02:40 6,8 C 94 % 1023,1 hPa 0,0 mm 1,1 km/h (1 Bft) SO 225 0 min 0 W/m 5,9 C 6,8 C 4,0 km/h (1 Bft)
21/12/2011 02:45 6,8 C 94 % 1023,2 hPa 0,1 mm 0,0 km/h (0 Bft) O-SO 247 0 min 0 W/m 5,9 C 6,8 C 0,0 km/h (0 Bft)
21/12/2011 02:50 6,8 C 94 % 1023,1 hPa 0,0 mm 0,0 km/h (0 Bft) O-SO 247 0 min 0 W/m 5,9 C 6,8 C 0,0 km/h (0 Bft)
21/12/2011 02:55 6,8 C 94 % 1023,1 hPa 0,1 mm 0,0 km/h (0 Bft) O-SO 247 0 min 0 W/m 5,9 C 6,8 C 3,2 km/h (1 Bft)
21/12/2011 03:00 6,8 C 94 % 1023,1 hPa 0,1 mm 0,4 km/h (0 Bft) O 270 0 min 0 W/m 5,9 C 6,8 C 0,4 km/h (0 Bft)
21/12/2011 03:05 6,8 C 94 % 1023,0 hPa 0,1 mm 0,0 km/h (0 Bft) S-SO 202 0 min 0 W/m 5,9 C 6,8 C 3,2 km/h (1 Bft)
21/12/2011 03:10 6,8 C 94 % 1023,0 hPa 0,1 mm 1,1 km/h (1 Bft) O 270 0 min 0 W/m 5,9 C 6,8 C 1,1 km/h (1 Bft)
21/12/2011 03:15 6,8 C 94 % 1022,9 hPa 0,1 mm 1,8 km/h (1 Bft) S-SO 202 0 min 0 W/m 5,9 C 6,8 C 7,6 km/h (2 Bft)
21/12/2011 03:20 6,7 C 94 % 1023,0 hPa 0,1 mm 1,1 km/h (1 Bft) SO 225 0 min 0 W/m 5,8 C 6,7 C 4,0 km/h (1 Bft)
21/12/2011 03:25 6,7 C 94 % 1022,9 hPa 0,1 mm 0,0 km/h (0 Bft) O-SO 247 0 min 0 W/m 5,8 C 6,7 C 0,0 km/h (0 Bft)
21/12/2011 03:30 6,6 C 94 % 1022,9 hPa 0,1 mm 0,0 km/h (0 Bft) O-SO 247 0 min 0 W/m 5,7 C 6,6 C 0,0 km/h (0 Bft)
21/12/2011 03:35 6,6 C 95 % 1022,9 hPa 0,1 mm 0,0 km/h (0 Bft) O-SO 247 0 min 0 W/m 5,9 C 6,6 C 2,9 km/h (1 Bft)
21/12/2011 03:40 6,6 C 95 % 1022,8 hPa 0,0 mm 1,1 km/h (1 Bft) O-SO 247 0 min 0 W/m 5,9 C 6,6 C 3,6 km/h (1 Bft)
21/12/2011 03:45 6,6 C 95 % 1022,8 hPa 0,1 mm 1,8 km/h (1 Bft) SO 225 0 min 0 W/m 5,9 C 6,6 C 3,2 km/h (1 Bft)
21/12/2011 03:50 6,6 C 95 % 1022,7 hPa 0,0 mm 0,0 km/h (0 Bft) O-SO 247 0 min 0 W/m 5,9 C 6,6 C 0,0 km/h (0 Bft)
21/12/2011 03:55 6,6 C 95 % 1022,7 hPa 0,0 mm 0,4 km/h (0 Bft) O 270 0 min 0 W/m 5,9 C 6,6 C 3,6 km/h (1 Bft)
21/12/2011 04:00 6,6 C 95 % 1022,6 hPa 0,1 mm 0,4 km/h (0 Bft) O-SO 247 0 min 0 W/m 5,9 C 6,6 C 3,2 km/h (1 Bft)
21/12/2011 04:05 6,6 C 95 % 1022,5 hPa 0,0 mm 0,0 km/h (0 Bft) O-SO 247 0 min 0 W/m 5,9 C 6,6 C 0,0 km/h (0 Bft)
21/12/2011 04:10 6,6 C 95 % 1022,4 hPa 0,0 mm 1,4 km/h (1 Bft) SO 225 0 min 0 W/m 5,9 C 6,6 C 4,3 km/h (1 Bft)
21/12/2011 04:15 6,6 C 95 % 1022,4 hPa 0,0 mm 0,0 km/h (0 Bft) O-SO 247 0 min 0 W/m 5,9 C 6,6 C 0,0 km/h (0 Bft)
21/12/2011 04:20 6,6 C 95 % 1022,5 hPa 0,0 mm 0,0 km/h (0 Bft) O-SO 247 0 min 0 W/m 5,9 C 6,6 C 0,0 km/h (0 Bft)
21/12/2011 04:25 6,6 C 95 % 1022,5 hPa 0,1 mm 1,8 km/h (1 Bft) O-SO 247 0 min 0 W/m 5,9 C 6,6 C 1,8 km/h (1 Bft)
21/12/2011 04:30 6,5 C 95 % 1022,5 hPa 0,0 mm 0,0 km/h (0 Bft) SO 225 0 min 0 W/m 5,8 C 6,5 C 3,6 km/h (1 Bft)
21/12/2011 04:35 6,5 C 95 % 1022,4 hPa 0,0 mm 0,0 km/h (0 Bft) O-SO 247 0 min 0 W/m 5,8 C 6,5 C 0,0 km/h (0 Bft)
21/12/2011 04:40 6,5 C 95 % 1022,3 hPa 0,0 mm 0,4 km/h (0 Bft) SO 225 0 min 0 W/m 5,8 C 6,5 C 0,4 km/h (0 Bft)
21/12/2011 04:45 6,5 C 95 % 1022,2 hPa 0,1 mm 1,1 km/h (1 Bft) SO 225 0 min 0 W/m 5,8 C 6,5 C 4,3 km/h (1 Bft)
21/12/2011 04:50 6,4 C 95 % 1022,1 hPa 0,0 mm 0,0 km/h (0 Bft) SO 225 0 min 0 W/m 5,7 C 6,4 C 0,0 km/h (0 Bft)
21/12/2011 04:55 6,4 C 95 % 1021,9 hPa 0,0 mm 0,4 km/h (0 Bft) SO 225 0 min 0 W/m 5,7 C 6,4 C 3,6 km/h (1 Bft)
21/12/2011 05:00 6,4 C 95 % 1021,9 hPa 0,0 mm 3,2 km/h (1 Bft) O 270 0 min 0 W/m 5,7 C 6,4 C 7,2 km/h (2 Bft)
21/12/2011 05:05 6,4 C 95 % 1021,9 hPa 0,0 mm 2,9 km/h (1 Bft) SO 225 0 min 0 W/m 5,7 C 6,4 C 2,9 km/h (1 Bft)
21/12/2011 05:10 6,4 C 95 % 1021,8 hPa 0,0 mm 0,4 km/h (0 Bft) SO 225 0 min 0 W/m 5,7 C 6,4 C 0,4 km/h (0 Bft)
21/12/2011 05:15 6,4 C 95 % 1021,8 hPa 0,1 mm 3,6 km/h (1 Bft) O-SO 247 0 min 0 W/m 5,7 C 6,4 C 8,3 km/h (2 Bft)
21/12/2011 05:20 6,4 C 95 % 1021,7 hPa 0,0 mm 0,4 km/h (0 Bft) O-SO 247 0 min 0 W/m 5,7 C 6,4 C 3,2 km/h (1 Bft)
21/12/2011 05:25 6,4 C 95 % 1021,6 hPa 0,0 mm 4,0 km/h (1 Bft) O-SO 247 0 min 0 W/m 5,7 C 6,4 C 6,1 km/h (2 Bft)
21/12/2011 05:30 6,4 C 95 % 1021,5 hPa 0,0 mm 2,2 km/h (1 Bft) S-SO 202 0 min 0 W/m 5,7 C 6,4 C 3,6 km/h (1 Bft)
21/12/2011 05:35 6,4 C 95 % 1021,4 hPa 0,0 mm 6,8 km/h (2 Bft) SO 225 0 min 0 W/m 5,7 C 5,1 C 11,9 km/h (2 Bft)
21/12/2011 05:40 6,3 C 95 % 1021,4 hPa 0,0 mm 0,7 km/h (0 Bft) SO 225 0 min 0 W/m 5,6 C 6,3 C 2,9 km/h (1 Bft)
21/12/2011 05:45 6,3 C 95 % 1021,5 hPa 0,1 mm 1,4 km/h (1 Bft) O-SO 247 0 min 0 W/m 5,6 C 6,3 C 6,5 km/h (2 Bft)
21/12/2011 05:50 6,3 C 95 % 1021,6 hPa 0,0 mm 1,1 km/h (1 Bft) SO 225 0 min 0 W/m 5,6 C 6,3 C 4,0 km/h (1 Bft)
21/12/2011 05:55 6,3 C 95 % 1021,6 hPa 0,0 mm 1,1 km/h (1 Bft) SO 225 0 min 0 W/m 5,6 C 6,3 C 2,9 km/h (1 Bft)
21/12/2011 06:00 6,3 C 95 % 1021,5 hPa 0,0 mm 3,6 km/h (1 Bft) O-SO 247 0 min 0 W/m 5,6 C 6,3 C 4,0 km/h (1 Bft)
21/12/2011 06:05 6,3 C 95 % 1021,6 hPa 0,1 mm 0,0 km/h (0 Bft) O-SO 247 0 min 0 W/m 5,6 C 6,3 C 0,0 km/h (0 Bft)
21/12/2011 06:10 6,3 C 95 % 1021,4 hPa 0,1 mm 1,4 km/h (1 Bft) SO 225 0 min 0 W/m 5,6 C 6,3 C 3,6 km/h (1 Bft)
21/12/2011 06:15 6,3 C 95 % 1021,3 hPa 0,0 mm 2,2 km/h (1 Bft) SO 225 0 min 0 W/m 5,6 C 6,3 C 3,6 km/h (1 Bft)
21/12/2011 06:20 6,3 C 95 % 1021,2 hPa 0,1 mm 3,6 km/h (1 Bft) S 180 0 min 0 W/m 5,6 C 6,3 C 3,6 km/h (1 Bft)
21/12/2011 06:25 6,3 C 95 % 1021,2 hPa 0,1 mm 2,2 km/h (1 Bft) SO 225 0 min 0 W/m 5,6 C 6,3 C 5,8 km/h (2 Bft)
21/12/2011 06:30 6,3 C 95 % 1021,2 hPa 0,0 mm 4,0 km/h (1 Bft) S-SO 202 0 min 0 W/m 5,6 C 6,3 C 6,1 km/h (2 Bft)
21/12/2011 06:35 6,3 C 95 % 1021,2 hPa 0,1 mm 4,0 km/h (1 Bft) SO 225 0 min 0 W/m 5,6 C 6,3 C 8,6 km/h (2 Bft)
21/12/2011 06:40 6,3 C 95 % 1021,1 hPa 0,0 mm 3,2 km/h (1 Bft) S-SO 202 0 min 0 W/m 5,6 C 6,3 C 4,3 km/h (1 Bft)
21/12/2011 06:45 6,3 C 95 % 1021,2 hPa 0,1 mm 4,7 km/h (1 Bft) SO 225 0 min 0 W/m 5,6 C 5,7 C 4,7 km/h (1 Bft)
21/12/2011 06:50 6,3 C 95 % 1021,2 hPa 0,0 mm 2,9 km/h (1 Bft) SO 225 0 min 0 W/m 5,6 C 6,3 C 4,0 km/h (1 Bft)
21/12/2011 06:55 6,3 C 95 % 1021,0 hPa 0,0 mm 3,2 km/h (1 Bft) S-SO 202 0 min 0 W/m 5,6 C 6,3 C 4,3 km/h (1 Bft)
21/12/2011 07:00 6,3 C 95 % 1021,0 hPa 0,1 mm 1,8 km/h (1 Bft) S-SO 202 0 min 0 W/m 5,6 C 6,3 C 6,8 km/h (2 Bft)
21/12/2011 07:05 6,3 C 95 % 1021,0 hPa 0,0 mm 1,1 km/h (1 Bft) S-SO 202 0 min 0 W/m 5,6 C 6,3 C 4,0 km/h (1 Bft)
21/12/2011 07:10 6,3 C 95 % 1021,0 hPa 0,1 mm 2,5 km/h (1 Bft) SO 225 0 min 0 W/m 5,6 C 6,3 C 6,8 km/h (2 Bft)
21/12/2011 07:15 6,3 C 95 % 1020,8 hPa 0,0 mm 6,1 km/h (2 Bft) S-SO 202 0 min 0 W/m 5,6 C 5,2 C 9,7 km/h (2 Bft)
21/12/2011 07:20 6,4 C 95 % 1020,8 hPa 0,1 mm 4,0 km/h (1 Bft) S 180 0 min 0 W/m 5,7 C 6,4 C 6,5 km/h (2 Bft)
21/12/2011 07:25 6,4 C 95 % 1020,8 hPa 0,1 mm 3,2 km/h (1 Bft) S-SO 202 0 min 0 W/m 5,7 C 6,4 C 6,8 km/h (2 Bft)
21/12/2011 07:30 6,4 C 95 % 1020,7 hPa 0,0 mm 4,7 km/h (1 Bft) S 180 0 min 0 W/m 5,7 C 5,8 C 4,7 km/h (1 Bft)
21/12/2011 07:35 6,4 C 95 % 1020,6 hPa 0,0 mm 4,0 km/h (1 Bft) S 180 0 min 0 W/m 5,7 C 6,4 C 4,0 km/h (1 Bft)
21/12/2011 07:40 6,4 C 95 % 1020,6 hPa 0,1 mm 2,5 km/h (1 Bft) SO 225 0 min 0 W/m 5,7 C 6,4 C 3,6 km/h (1 Bft)
21/12/2011 07:45 6,4 C 95 % 1020,5 hPa 0,0 mm 4,3 km/h (1 Bft) S-SO 202 0 min 0 W/m 5,7 C 6,4 C 7,6 km/h (2 Bft)
21/12/2011 07:50 6,4 C 95 % 1020,4 hPa 0,1 mm 4,0 km/h (1 Bft) SO 225 0 min 0 W/m 5,7 C 6,4 C 7,2 km/h (2 Bft)
21/12/2011 07:55 6,4 C 95 % 1020,5 hPa 0,0 mm 5,0 km/h (1 Bft) S-SO 202 0 min 0 W/m 5,7 C 5,7 C 5,0 km/h (1 Bft)
21/12/2011 08:00 6,4 C 95 % 1020,6 hPa 0,0 mm 5,4 km/h (2 Bft) S-SE 157 0 min 0 W/m 5,7 C 5,5 C 9,4 km/h (2 Bft)
21/12/2011 08:05 6,5 C 95 % 1020,6 hPa 0,1 mm 4,7 km/h (1 Bft) S-SO 202 0 min 0 W/m 5,8 C 5,9 C 7,2 km/h (2 Bft)
21/12/2011 08:10 6,5 C 95 % 1020,5 hPa 0,0 mm 4,0 km/h (1 Bft) S-SO 202 0 min 0 W/m 5,8 C 6,5 C 6,5 km/h (2 Bft)
21/12/2011 08:15 6,6 C 95 % 1020,4 hPa 0,0 mm 4,7 km/h (1 Bft) S-SO 202 0 min 0 W/m 5,9 C 6,0 C 6,5 km/h (2 Bft)
21/12/2011 08:20 6,6 C 95 % 1020,3 hPa 0,1 mm 6,5 km/h (2 Bft) SO 225 0 min 0 W/m 5,9 C 5,4 C 6,5 km/h (2 Bft)
21/12/2011 08:25 6,6 C 95 % 1020,3 hPa 0,0 mm 2,5 km/h (1 Bft) SO 225 0 min 0 W/m 5,9 C 6,6 C 2,9 km/h (1 Bft)
21/12/2011 08:30 6,6 C 95 % 1020,4 hPa 0,1 mm 6,5 km/h (2 Bft) S-SO 202 0 min 0 W/m 5,9 C 5,4 C 10,4 km/h (2 Bft)
21/12/2011 08:35 6,8 C 95 % 1020,3 hPa 0,1 mm 7,2 km/h (2 Bft) S-SO 202 0 min 0 W/m 6,1 C 5,5 C 10,1 km/h (2 Bft)
21/12/2011 08:40 6,8 C 95 % 1020,3 hPa 0,0 mm 6,5 km/h (2 Bft) S-SO 202 0 min 0 W/m 6,1 C 5,6 C 7,6 km/h (2 Bft)
21/12/2011 08:45 6,8 C 95 % 1019,9 hPa 0,1 mm 6,5 km/h (2 Bft) SO 225 0 min 0 W/m 6,1 C 5,6 C 9,7 km/h (2 Bft)
21/12/2011 08:50 6,9 C 95 % 1020,0 hPa 0,0 mm 3,6 km/h (1 Bft) SO 225 0 min 0 W/m 6,2 C 6,9 C 5,8 km/h (2 Bft)
21/12/2011 08:55 6,9 C 95 % 1020,0 hPa 0,0 mm 5,8 km/h (2 Bft) S 180 0 min 0 W/m 6,2 C 6,0 C 9,7 km/h (2 Bft)
21/12/2011 09:00 6,9 C 95 % 1020,0 hPa 0,1 mm 4,3 km/h (1 Bft) S-SO 202 0 min 0 W/m 6,2 C 6,9 C 12,2 km/h (2 Bft)
21/12/2011 09:05 7,1 C 96 % 1020,0 hPa 0,0 mm 7,9 km/h (2 Bft) S-SO 202 0 min 0 W/m 6,5 C 5,6 C 10,1 km/h (2 Bft)
21/12/2011 09:10 7,1 C 95 % 1020,0 hPa 0,1 mm 8,6 km/h (2 Bft) S-SO 202 0 min 0 W/m 6,4 C 5,5 C 12,2 km/h (2 Bft)
21/12/2011 09:15 7,2 C 96 % 1020,0 hPa 0,0 mm 7,9 km/h (2 Bft) S-SO 202 0 min 0 W/m 6,6 C 5,7 C 9,4 km/h (2 Bft)
21/12/2011 09:20 7,2 C 96 % 1020,0 hPa 0,1 mm 6,8 km/h (2 Bft) SO 225 0 min 0 W/m 6,6 C 6,0 C 9,7 km/h (2 Bft)
21/12/2011 09:25 7,2 C 96 % 1020,0 hPa 0,0 mm 6,5 km/h (2 Bft) SO 225 0 min 0 W/m 6,6 C 6,1 C 9,7 km/h (2 Bft)
21/12/2011 09:30 7,2 C 96 % 1020,1 hPa 0,0 mm 6,5 km/h (2 Bft) S-SO 202 0 min 0 W/m 6,6 C 6,1 C 8,3 km/h (2 Bft)
21/12/2011 09:35 7,3 C 96 % 1020,0 hPa 0,1 mm 6,1 km/h (2 Bft) S 180 0 min 0 W/m 6,7 C 6,3 C 7,6 km/h (2 Bft)
21/12/2011 09:40 7,4 C 96 % 1020,0 hPa 0,0 mm 4,0 km/h (1 Bft) SO 225 0 min 0 W/m 6,8 C 7,4 C 10,1 km/h (2 Bft)
21/12/2011 09:45 7,4 C 96 % 1020,1 hPa 0,1 mm 6,8 km/h (2 Bft) O-SO 247 0 min 0 W/m 6,8 C 6,3 C 8,6 km/h (2 Bft)
21/12/2011 09:50 7,6 C 96 % 1020,1 hPa 0,0 mm 3,2 km/h (1 Bft) O-SO 247 0 min 0 W/m 7,0 C 7,6 C 7,9 km/h (2 Bft)
21/12/2011 09:55 7,7 C 96 % 1020,1 hPa 0,0 mm 5,4 km/h (2 Bft) O-SO 247 0 min 0 W/m 7,1 C 7,0 C 8,6 km/h (2 Bft)
21/12/2011 10:00 7,8 C 96 % 1020,1 hPa 0,0 mm 7,6 km/h (2 Bft) SO 225 0 min 0 W/m 7,2 C 6,5 C 11,2 km/h (2 Bft)
21/12/2011 10:05 7,9 C 96 % 1020,0 hPa 0,0 mm 7,9 km/h (2 Bft) S-SO 202 0 min 0 W/m 7,3 C 6,6 C 15,1 km/h (3 Bft)
21/12/2011 10:10 8,0 C 96 % 1019,9 hPa 0,0 mm 6,5 km/h (2 Bft) SO 225 0 min 0 W/m 7,4 C 7,0 C 9,4 km/h (2 Bft)
21/12/2011 10:15 8,1 C 96 % 1020,0 hPa 0,1 mm 2,5 km/h (1 Bft) S-SO 202 0 min 0 W/m 7,5 C 8,1 C 7,2 km/h (2 Bft)
21/12/2011 10:20 8,3 C 96 % 1020,1 hPa 0,0 mm 4,7 km/h (1 Bft) O-SO 247 0 min 0 W/m 7,7 C 7,9 C 4,7 km/h (1 Bft)
21/12/2011 10:25 8,3 C 96 % 1020,1 hPa 0,0 mm 7,2 km/h (2 Bft) SO 225 0 min 0 W/m 7,7 C 7,2 C 13,0 km/h (3 Bft)
21/12/2011 10:30 8,4 C 96 % 1020,1 hPa 0,0 mm 3,2 km/h (1 Bft) O-SO 247 0 min 0 W/m 7,8 C 8,4 C 6,8 km/h (2 Bft)
21/12/2011 10:35 8,5 C 96 % 1020,2 hPa 0,0 mm 5,0 km/h (1 Bft) O-SO 247 0 min 0 W/m 7,9 C 8,1 C 10,4 km/h (2 Bft)
21/12/2011 10:40 8,6 C 96 % 1020,2 hPa 0,0 mm 5,0 km/h (1 Bft) SO 225 0 min 0 W/m 8,0 C 8,2 C 11,9 km/h (2 Bft)
21/12/2011 10:45 8,8 C 96 % 1020,2 hPa 0,0 mm 2,2 km/h (1 Bft) SO 225 0 min 0 W/m 8,2 C 8,8 C 3,6 km/h (1 Bft)
21/12/2011 10:50 8,9 C 96 % 1020,4 hPa 0,0 mm 0,7 km/h (0 Bft) O 270 0 min 0 W/m 8,3 C 8,9 C 0,7 km/h (0 Bft)
21/12/2011 10:55 8,9 C 96 % 1020,3 hPa 0,0 mm 6,8 km/h (2 Bft) SO 225 0 min 0 W/m 8,3 C 8,0 C 10,8 km/h (2 Bft)
21/12/2011 11:00 9,1 C 96 % 1020,2 hPa 0,0 mm 3,2 km/h (1 Bft) O-SO 247 0 min 0 W/m 8,5 C 9,1 C 7,6 km/h (2 Bft)
21/12/2011 11:05 9,2 C 96 % 1020,3 hPa 0,0 mm 1,4 km/h (1 Bft) O-SO 247 0 min 0 W/m 8,6 C 9,2 C 1,4 km/h (1 Bft)
21/12/2011 11:10 9,3 C 96 % 1020,3 hPa 0,0 mm 2,9 km/h (1 Bft) SO 225 0 min 0 W/m 8,7 C 9,3 C 10,4 km/h (2 Bft)
21/12/2011 11:15 9,4 C 96 % 1020,3 hPa 0,0 mm 0,0 km/h (0 Bft) O-SO 247 0 min 0 W/m 8,8 C 9,4 C 0,0 km/h (0 Bft)
21/12/2011 11:20 9,5 C 96 % 1020,3 hPa 0,0 mm 3,6 km/h (1 Bft) SO 225 0 min 0 W/m 8,9 C 9,5 C 10,8 km/h (2 Bft)
21/12/2011 11:25 9,7 C 96 % 1020,3 hPa 0,0 mm 4,3 km/h (1 Bft) O 270 0 min 0 W/m 9,1 C 9,7 C 13,0 km/h (3 Bft)
21/12/2011 11:30 9,8 C 96 % 1020,4 hPa 0,0 mm 1,1 km/h (1 Bft) SO 225 0 min 0 W/m 9,2 C 9,8 C 9,0 km/h (2 Bft)
21/12/2011 11:35 9,9 C 96 % 1020,3 hPa 0,0 mm 2,9 km/h (1 Bft) O 270 0 min 0 W/m 9,3 C 9,9 C 4,0 km/h (1 Bft)
21/12/2011 11:40 10,0 C 96 % 1020,3 hPa 0,0 mm 1,1 km/h (1 Bft) O 270 0 min 0 W/m 9,4 C 10,0 C 5,8 km/h (2 Bft)
21/12/2011 11:45 10,2 C 96 % 1020,3 hPa 0,0 mm 2,9 km/h (1 Bft) SO 225 0 min 0 W/m 9,6 C 10,2 C 7,6 km/h (2 Bft)
21/12/2011 11:50 10,3 C 96 % 1020,5 hPa 0,0 mm 9,7 km/h (2 Bft) O 270 0 min 0 W/m 9,7 C 10,3 C 9,7 km/h (2 Bft)
21/12/2011 11:55 10,3 C 96 % 1020,3 hPa 0,0 mm 5,4 km/h (2 Bft) O 270 0 min 0 W/m 9,7 C 10,3 C 6,5 km/h (2 Bft)
21/12/2011 12:00 10,4 C 96 % 1020,3 hPa 0,0 mm 11,2 km/h (2 Bft) O 270 0 min 0 W/m 9,8 C 10,4 C 18,0 km/h (3 Bft)
21/12/2011 12:05 10,4 C 96 % 1020,3 hPa 0,0 mm 5,4 km/h (2 Bft) O-SO 247 0 min 0 W/m 9,8 C 10,4 C 15,5 km/h (3 Bft)
21/12/2011 12:10 10,4 C 96 % 1020,3 hPa 0,0 mm 1,4 km/h (1 Bft) N-NO 337 0 min 0 W/m 9,8 C 10,4 C 3,6 km/h (1 Bft)
21/12/2011 12:15 10,5 C 96 % 1020,3 hPa 0,0 mm 4,3 km/h (1 Bft) O 270 0 min 0 W/m 9,9 C 10,5 C 10,8 km/h (2 Bft)
21/12/2011 12:20 10,5 C 96 % 1020,3 hPa 0,0 mm 9,7 km/h (2 Bft) O 270 0 min 0 W/m 9,9 C 10,5 C 18,0 km/h (3 Bft)
21/12/2011 12:25 10,6 C 96 % 1020,3 hPa 0,0 mm 0,7 km/h (0 Bft) O-SO 247 0 min 0 W/m 10,0 C 10,6 C 6,1 km/h (2 Bft)
21/12/2011 12:30 10,6 C 96 % 1020,3 hPa 0,0 mm 8,3 km/h (2 Bft) O 270 0 min 0 W/m 10,0 C 10,6 C 15,8 km/h (3 Bft)
21/12/2011 12:35 10,6 C 96 % 1020,3 hPa 0,0 mm 5,0 km/h (1 Bft) O-SO 247 0 min 0 W/m 10,0 C 10,6 C 9,7 km/h (2 Bft)
21/12/2011 12:40 10,7 C 96 % 1020,4 hPa 0,0 mm 0,7 km/h (0 Bft) NO 315 0 min 0 W/m 10,1 C 10,7 C 0,7 km/h (0 Bft)
21/12/2011 12:45 10,6 C 96 % 1020,4 hPa 0,0 mm 3,2 km/h (1 Bft) O-SO 247 0 min 0 W/m 10,0 C 10,6 C 7,6 km/h (2 Bft)
21/12/2011 12:50 10,6 C 96 % 1020,3 hPa 0,0 mm 2,2 km/h (1 Bft) NO 315 0 min 0 W/m 10,0 C 10,6 C 9,0 km/h (2 Bft)
21/12/2011 12:55 10,8 C 97 % 1020,4 hPa 0,0 mm 2,9 km/h (1 Bft) O-NO 292 0 min 0 W/m 10,3 C 10,8 C 6,5 km/h (2 Bft)
21/12/2011 13:00 10,7 C 96 % 1020,5 hPa 0,0 mm 2,5 km/h (1 Bft) O-NO 292 0 min 0 W/m 10,1 C 10,7 C 9,4 km/h (2 Bft)
21/12/2011 13:05 10,8 C 97 % 1020,4 hPa 0,0 mm 2,9 km/h (1 Bft) O-NO 292 0 min 0 W/m 10,3 C 10,8 C 3,2 km/h (1 Bft)
21/12/2011 13:10 10,8 C 97 % 1020,4 hPa 0,0 mm 5,8 km/h (2 Bft) O-NO 292 0 min 0 W/m 10,3 C 10,8 C 17,3 km/h (3 Bft)
21/12/2011 13:15 10,8 C 97 % 1020,3 hPa 0,0 mm 4,7 km/h (1 Bft) NO 315 0 min 0 W/m 10,3 C 10,8 C 4,7 km/h (1 Bft)
21/12/2011 13:20 10,8 C 97 % 1020,3 hPa 0,0 mm 4,7 km/h (1 Bft) O 270 0 min 0 W/m 10,3 C 10,8 C 4,7 km/h (1 Bft)
21/12/2011 13:25 10,8 C 97 % 1020,2 hPa 0,0 mm 4,7 km/h (1 Bft) NO 315 0 min 0 W/m 10,3 C 10,8 C 10,4 km/h (2 Bft)
21/12/2011 13:30 10,8 C 97 % 1020,1 hPa 0,0 mm 7,2 km/h (2 Bft) O-SO 247 0 min 0 W/m 10,3 C 10,8 C 14,4 km/h (3 Bft)
21/12/2011 13:35 10,8 C 97 % 1020,2 hPa 0,0 mm 0,4 km/h (0 Bft) O-NO 292 0 min 0 W/m 10,3 C 10,8 C 3,6 km/h (1 Bft)
21/12/2011 13:40 10,9 C 97 % 1020,2 hPa 0,0 mm 5,0 km/h (1 Bft) O-NO 292 0 min 0 W/m 10,4 C 10,9 C 15,1 km/h (3 Bft)
21/12/2011 13:45 10,9 C 97 % 1020,3 hPa 0,0 mm 8,3 km/h (2 Bft) O 270 0 min 0 W/m 10,4 C 10,9 C 16,2 km/h (3 Bft)
21/12/2011 13:50 10,9 C 97 % 1020,3 hPa 0,0 mm 2,9 km/h (1 Bft) O 270 0 min 0 W/m 10,4 C 10,9 C 3,6 km/h (1 Bft)
21/12/2011 13:55 10,9 C 97 % 1020,3 hPa 0,0 mm 4,3 km/h (1 Bft) O-SO 247 0 min 0 W/m 10,4 C 10,9 C 4,3 km/h (1 Bft)
21/12/2011 14:00 10,9 C 97 % 1020,2 hPa 0,0 mm 4,0 km/h (1 Bft) O-NO 292 0 min 0 W/m 10,4 C 10,9 C 11,9 km/h (2 Bft)
21/12/2011 14:05 10,9 C 97 % 1020,3 hPa 0,0 mm 2,2 km/h (1 Bft) O-SO 247 0 min 0 W/m 10,4 C 10,9 C 9,0 km/h (2 Bft)
21/12/2011 14:10 10,9 C 97 % 1020,4 hPa 0,0 mm 1,4 km/h (1 Bft) NO 315 0 min 0 W/m 10,4 C 10,9 C 3,6 km/h (1 Bft)
21/12/2011 14:15 10,9 C 97 % 1020,5 hPa 0,1 mm 5,0 km/h (1 Bft) SO 225 0 min 0 W/m 10,4 C 10,9 C 15,1 km/h (3 Bft)
21/12/2011 14:20 10,9 C 97 % 1020,5 hPa 0,0 mm 0,7 km/h (0 Bft) NO 315 0 min 0 W/m 10,4 C 10,9 C 6,5 km/h (2 Bft)
21/12/2011 14:25 10,9 C 97 % 1020,4 hPa 0,0 mm 3,6 km/h (1 Bft) O-SO 247 0 min 0 W/m 10,4 C 10,9 C 3,6 km/h (1 Bft)
21/12/2011 14:30 10,9 C 97 % 1020,4 hPa 0,0 mm 3,6 km/h (1 Bft) N 360 0 min 0 W/m 10,4 C 10,9 C 3,6 km/h (1 Bft)
21/12/2011 14:35 10,9 C 97 % 1020,4 hPa 0,0 mm 0,0 km/h (0 Bft) O 270 0 min 0 W/m 10,4 C 10,9 C 5,0 km/h (1 Bft)
21/12/2011 14:40 11,1 C 97 % 1020,5 hPa 0,0 mm 1,1 km/h (1 Bft) O 270 0 min 0 W/m 10,6 C 11,1 C 4,3 km/h (1 Bft)
21/12/2011 14:45 11,1 C 97 % 1020,4 hPa 0,0 mm 2,2 km/h (1 Bft) NO 315 0 min 0 W/m 10,6 C 11,1 C 3,6 km/h (1 Bft)
21/12/2011 14:50 11,1 C 97 % 1020,4 hPa 0,0 mm 5,8 km/h (2 Bft) O-NO 292 0 min 0 W/m 10,6 C 11,1 C 11,9 km/h (2 Bft)
21/12/2011 14:55 11,0 C 97 % 1020,4 hPa 0,0 mm 5,8 km/h (2 Bft) O-NO 292 0 min 0 W/m 10,5 C 11,0 C 13,3 km/h (3 Bft)
21/12/2011 15:00 11,1 C 97 % 1020,4 hPa 0,0 mm 1,8 km/h (1 Bft) NO 315 0 min 0 W/m 10,6 C 11,1 C 2,9 km/h (1 Bft)
21/12/2011 15:05 11,1 C 96 % 1020,4 hPa 0,0 mm 2,2 km/h (1 Bft) O 270 0 min 0 W/m 10,5 C 11,1 C 4,3 km/h (1 Bft)
21/12/2011 15:10 11,1 C 96 % 1020,4 hPa 0,0 mm 0,7 km/h (0 Bft) O-NO 292 0 min 0 W/m 10,5 C 11,1 C 3,6 km/h (1 Bft)
21/12/2011 15:15 11,0 C 97 % 1020,5 hPa 0,0 mm 1,8 km/h (1 Bft) O 270 0 min 0 W/m 10,5 C 11,0 C 4,3 km/h (1 Bft)
21/12/2011 15:20 10,9 C 97 % 1020,6 hPa 0,0 mm 2,9 km/h (1 Bft) NO 315 0 min 0 W/m 10,4 C 10,9 C 4,3 km/h (1 Bft)
21/12/2011 15:25 10,9 C 96 % 1020,6 hPa 0,0 mm 2,5 km/h (1 Bft) O-NO 292 0 min 0 W/m 10,3 C 10,9 C 4,0 km/h (1 Bft)
21/12/2011 15:30 11,0 C 96 % 1020,8 hPa 0,0 mm 4,3 km/h (1 Bft) NO 315 0 min 0 W/m 10,4 C 11,0 C 6,5 km/h (2 Bft)
21/12/2011 15:35 10,9 C 96 % 1020,8 hPa 0,0 mm 9,0 km/h (2 Bft) NO 315 0 min 0 W/m 10,3 C 10,9 C 11,9 km/h (2 Bft)
21/12/2011 15:40 10,9 C 97 % 1020,9 hPa 0,0 mm 5,4 km/h (2 Bft) NO 315 0 min 0 W/m 10,4 C 10,9 C 5,4 km/h (2 Bft)
21/12/2011 15:45 11,0 C 96 % 1020,9 hPa 0,0 mm 3,6 km/h (1 Bft) NO 315 0 min 0 W/m 10,4 C 11,0 C 3,6 km/h (1 Bft)
21/12/2011 15:50 11,0 C 97 % 1020,9 hPa 0,1 mm 2,9 km/h (1 Bft) NO 315 0 min 0 W/m 10,5 C 11,0 C 4,3 km/h (1 Bft)
21/12/2011 15:55 10,9 C 96 % 1021,0 hPa 0,0 mm 6,1 km/h (2 Bft) NO 315 0 min 0 W/m 10,3 C 10,9 C 11,5 km/h (2 Bft)
21/12/2011 16:00 10,9 C 97 % 1021,2 hPa 0,0 mm 3,6 km/h (1 Bft) N-NO 337 0 min 0 W/m 10,4 C 10,9 C 8,6 km/h (2 Bft)
21/12/2011 16:05 10,9 C 97 % 1021,2 hPa 0,0 mm 4,7 km/h (1 Bft) NO 315 0 min 0 W/m 10,4 C 10,9 C 12,6 km/h (3 Bft)
21/12/2011 16:10 10,9 C 96 % 1021,2 hPa 0,0 mm 8,6 km/h (2 Bft) NO 315 0 min 0 W/m 10,3 C 10,9 C 12,6 km/h (3 Bft)
21/12/2011 16:15 10,9 C 96 % 1021,3 hPa 0,0 mm 5,8 km/h (2 Bft) NO 315 0 min 0 W/m 10,3 C 10,9 C 10,1 km/h (2 Bft)
21/12/2011 16:20 10,9 C 96 % 1021,5 hPa 0,0 mm 5,4 km/h (2 Bft) NO 315 0 min 0 W/m 10,3 C 10,9 C 12,6 km/h (3 Bft)
21/12/2011 16:25 10,9 C 96 % 1021,5 hPa 0,0 mm 4,7 km/h (1 Bft) NO 315 0 min 0 W/m 10,3 C 10,9 C 4,7 km/h (1 Bft)
21/12/2011 16:30 10,9 C 96 % 1021,5 hPa 0,0 mm 5,4 km/h (2 Bft) NO 315 0 min 0 W/m 10,3 C 10,9 C 6,5 km/h (2 Bft)
21/12/2011 16:35 10,9 C 97 % 1021,5 hPa 0,0 mm 2,9 km/h (1 Bft) O-NO 292 0 min 0 W/m 10,4 C 10,9 C 2,9 km/h (1 Bft)
21/12/2011 16:40 10,9 C 96 % 1021,5 hPa 0,0 mm 4,7 km/h (1 Bft) NO 315 0 min 0 W/m 10,3 C 10,9 C 6,8 km/h (2 Bft)
21/12/2011 16:45 10,9 C 96 % 1021,5 hPa 0,0 mm 10,4 km/h (2 Bft) N-NO 337 0 min 0 W/m 10,3 C 10,9 C 10,4 km/h (2 Bft)
21/12/2011 16:50 10,9 C 96 % 1021,5 hPa 0,0 mm 5,4 km/h (2 Bft) NO 315 0 min 0 W/m 10,3 C 10,9 C 5,4 km/h (2 Bft)
21/12/2011 16:55 10,9 C 96 % 1021,6 hPa 0,0 mm 3,2 km/h (1 Bft) N-NO 337 0 min 0 W/m 10,3 C 10,9 C 8,6 km/h (2 Bft)
21/12/2011 17:00 10,9 C 96 % 1021,6 hPa 0,0 mm 5,4 km/h (2 Bft) NO 315 0 min 0 W/m 10,3 C 10,9 C 9,0 km/h (2 Bft)
21/12/2011 17:05 10,9 C 96 % 1021,7 hPa 0,0 mm 1,4 km/h (1 Bft) N-NO 337 0 min 0 W/m 10,3 C 10,9 C 4,3 km/h (1 Bft)
21/12/2011 17:10 10,9 C 96 % 1021,6 hPa 0,0 mm 4,7 km/h (1 Bft) O-NO 292 0 min 0 W/m 10,3 C 10,9 C 9,0 km/h (2 Bft)
21/12/2011 17:15 10,9 C 96 % 1021,6 hPa 0,1 mm 2,9 km/h (1 Bft) N 360 0 min 0 W/m 10,3 C 10,9 C 10,4 km/h (2 Bft)
21/12/2011 17:20 10,8 C 96 % 1021,8 hPa 0,0 mm 10,8 km/h (2 Bft) O-NO 292 0 min 0 W/m 10,2 C 10,8 C 15,1 km/h (3 Bft)
21/12/2011 17:25 10,8 C 96 % 1021,9 hPa 0,0 mm 7,9 km/h (2 Bft) NO 315 0 min 0 W/m 10,2 C 10,8 C 13,7 km/h (3 Bft)
21/12/2011 17:30 10,8 C 96 % 1022,1 hPa 0,0 mm 6,1 km/h (2 Bft) NO 315 0 min 0 W/m 10,2 C 10,8 C 8,6 km/h (2 Bft)
21/12/2011 17:35 10,8 C 96 % 1021,9 hPa 0,0 mm 5,0 km/h (1 Bft) O-NO 292 0 min 0 W/m 10,2 C 10,8 C 6,1 km/h (2 Bft)
21/12/2011 17:40 10,8 C 96 % 1022,0 hPa 0,0 mm 6,1 km/h (2 Bft) O-NO 292 0 min 0 W/m 10,2 C 10,8 C 6,1 km/h (2 Bft)
21/12/2011 17:45 10,8 C 96 % 1022,0 hPa 0,0 mm 4,0 km/h (1 Bft) NO 315 0 min 0 W/m 10,2 C 10,8 C 7,9 km/h (2 Bft)
21/12/2011 17:50 10,8 C 96 % 1022,2 hPa 0,0 mm 4,3 km/h (1 Bft) NO 315 0 min 0 W/m 10,2 C 10,8 C 9,4 km/h (2 Bft)
21/12/2011 17:55 10,8 C 96 % 1022,2 hPa 0,0 mm 4,7 km/h (1 Bft) N 360 0 min 0 W/m 10,2 C 10,8 C 9,7 km/h (2 Bft)
21/12/2011 18:00 10,8 C 96 % 1022,3 hPa 0,0 mm 0,0 km/h (0 Bft) O-NO 292 0 min 0 W/m 10,2 C 10,8 C 0,0 km/h (0 Bft)
21/12/2011 18:05 10,8 C 96 % 1022,3 hPa 0,0 mm 1,8 km/h (1 Bft) O-NO 292 0 min 0 W/m 10,2 C 10,8 C 1,8 km/h (1 Bft)
21/12/2011 18:10 10,8 C 96 % 1022,3 hPa 0,0 mm 0,0 km/h (0 Bft) NO 315 0 min 0 W/m 10,2 C 10,8 C 0,0 km/h (0 Bft)
21/12/2011 18:15 10,8 C 96 % 1022,4 hPa 0,0 mm 0,0 km/h (0 Bft) NO 315 0 min 0 W/m 10,2 C 10,8 C 0,0 km/h (0 Bft)
21/12/2011 18:20 10,8 C 96 % 1022,5 hPa 0,0 mm 0,0 km/h (0 Bft) NO 315 0 min 0 W/m 10,2 C 10,8 C 0,0 km/h (0 Bft)
21/12/2011 18:25 10,8 C 96 % 1022,5 hPa 0,0 mm 0,0 km/h (0 Bft) O-NO 292 0 min 0 W/m 10,2 C 10,8 C 3,6 km/h (1 Bft)
21/12/2011 18:30 10,8 C 96 % 1022,6 hPa 0,0 mm 0,4 km/h (0 Bft) NO 315 0 min 0 W/m 10,2 C 10,8 C 2,9 km/h (1 Bft)
21/12/2011 18:35 10,8 C 96 % 1022,5 hPa 0,0 mm 2,2 km/h (1 Bft) NO 315 0 min 0 W/m 10,2 C 10,8 C 9,0 km/h (2 Bft)
21/12/2011 18:40 10,8 C 96 % 1022,6 hPa 0,0 mm 1,4 km/h (1 Bft) O 270 0 min 0 W/m 10,2 C 10,8 C 13,3 km/h (3 Bft)
21/12/2011 18:45 10,8 C 96 % 1022,7 hPa 0,0 mm 1,1 km/h (1 Bft) O-SO 247 0 min 0 W/m 10,2 C 10,8 C 3,6 km/h (1 Bft)
21/12/2011 18:50 10,8 C 96 % 1022,8 hPa 0,0 mm 0,7 km/h (0 Bft) O-NO 292 0 min 0 W/m 10,2 C 10,8 C 3,2 km/h (1 Bft)
21/12/2011 18:55 10,8 C 96 % 1022,8 hPa 0,0 mm 0,0 km/h (0 Bft) NO 315 0 min 0 W/m 10,2 C 10,8 C 0,0 km/h (0 Bft)
21/12/2011 19:00 10,8 C 96 % 1022,9 hPa 0,0 mm 0,7 km/h (0 Bft) O 270 0 min 0 W/m 10,2 C 10,8 C 4,3 km/h (1 Bft)
21/12/2011 19:05 10,8 C 96 % 1022,9 hPa 0,0 mm 4,0 km/h (1 Bft) O 270 0 min 0 W/m 10,2 C 10,8 C 7,6 km/h (2 Bft)
21/12/2011 19:10 10,8 C 96 % 1023,1 hPa 0,0 mm 4,3 km/h (1 Bft) NO 315 0 min 0 W/m 10,2 C 10,8 C 7,2 km/h (2 Bft)
21/12/2011 19:15 10,8 C 96 % 1023,2 hPa 0,1 mm 0,0 km/h (0 Bft) O 270 0 min 0 W/m 10,2 C 10,8 C 0,0 km/h (0 Bft)
21/12/2011 19:20 10,8 C 96 % 1023,1 hPa 0,0 mm 0,7 km/h (0 Bft) O 270 0 min 0 W/m 10,2 C 10,8 C 3,2 km/h (1 Bft)
21/12/2011 19:25 10,8 C 96 % 1023,1 hPa 0,0 mm 4,3 km/h (1 Bft) O-NO 292 0 min 0 W/m 10,2 C 10,8 C 6,8 km/h (2 Bft)
21/12/2011 19:30 10,8 C 96 % 1023,2 hPa 0,0 mm 0,0 km/h (0 Bft) NO 315 0 min 0 W/m 10,2 C 10,8 C 3,2 km/h (1 Bft)
21/12/2011 19:35 10,8 C 96 % 1023,3 hPa 0,0 mm 2,2 km/h (1 Bft) O 270 0 min 0 W/m 10,2 C 10,8 C 6,1 km/h (2 Bft)
21/12/2011 19:40 10,8 C 96 % 1023,4 hPa 0,0 mm 4,7 km/h (1 Bft) NO 315 0 min 0 W/m 10,2 C 10,8 C 6,8 km/h (2 Bft)
21/12/2011 19:45 10,8 C 96 % 1023,5 hPa 0,0 mm 2,9 km/h (1 Bft) NO 315 0 min 0 W/m 10,2 C 10,8 C 7,2 km/h (2 Bft)
21/12/2011 19:50 10,8 C 96 % 1023,6 hPa 0,0 mm 7,9 km/h (2 Bft) NO 315 0 min 0 W/m 10,2 C 10,8 C 7,9 km/h (2 Bft)
21/12/2011 19:55 10,8 C 96 % 1023,6 hPa 0,0 mm 4,7 km/h (1 Bft) N-NO 337 0 min 0 W/m 10,2 C 10,8 C 6,5 km/h (2 Bft)
21/12/2011 20:00 10,7 C 96 % 1023,7 hPa 0,0 mm 5,4 km/h (2 Bft) NO 315 0 min 0 W/m 10,1 C 10,7 C 8,3 km/h (2 Bft)
21/12/2011 20:05 10,7 C 96 % 1023,9 hPa 0,0 mm 1,1 km/h (1 Bft) N-NO 337 0 min 0 W/m 10,1 C 10,7 C 3,2 km/h (1 Bft)
21/12/2011 20:10 10,7 C 96 % 1023,8 hPa 0,0 mm 2,2 km/h (1 Bft) NO 315 0 min 0 W/m 10,1 C 10,7 C 7,9 km/h (2 Bft)
21/12/2011 20:15 10,6 C 96 % 1023,9 hPa 0,0 mm 7,2 km/h (2 Bft) NO 315 0 min 0 W/m 10,0 C 10,6 C 12,6 km/h (3 Bft)
21/12/2011 20:20 10,6 C 96 % 1023,9 hPa 0,1 mm 2,5 km/h (1 Bft) NO 315 0 min 0 W/m 10,0 C 10,6 C 7,2 km/h (2 Bft)
21/12/2011 20:25 10,6 C 96 % 1024,0 hPa 0,0 mm 4,3 km/h (1 Bft) N-NO 337 0 min 0 W/m 10,0 C 10,6 C 4,3 km/h (1 Bft)
21/12/2011 20:30 10,6 C 96 % 1024,0 hPa 0,0 mm 6,8 km/h (2 Bft) N-NO 337 0 min 0 W/m 10,0 C 10,6 C 7,9 km/h (2 Bft)
21/12/2011 20:35 10,6 C 96 % 1024,0 hPa 0,0 mm 3,6 km/h (1 Bft) N-NO 337 0 min 0 W/m 10,0 C 10,6 C 4,0 km/h (1 Bft)
21/12/2011 20:40 10,6 C 96 % 1024,0 hPa 0,0 mm 5,4 km/h (2 Bft) NO 315 0 min 0 W/m 10,0 C 10,6 C 7,2 km/h (2 Bft)
21/12/2011 20:45 10,6 C 96 % 1024,1 hPa 0,0 mm 5,0 km/h (1 Bft) N-NO 337 0 min 0 W/m 10,0 C 10,6 C 9,7 km/h (2 Bft)
21/12/2011 20:50 10,6 C 96 % 1024,1 hPa 0,0 mm 1,4 km/h (1 Bft) NO 315 0 min 0 W/m 10,0 C 10,6 C 3,6 km/h (1 Bft)
21/12/2011 20:55 10,5 C 96 % 1024,2 hPa 0,0 mm 5,0 km/h (1 Bft) NO 315 0 min 0 W/m 9,9 C 10,5 C 9,0 km/h (2 Bft)
21/12/2011 21:00 10,5 C 96 % 1024,3 hPa 0,0 mm 5,0 km/h (1 Bft) O-NO 292 0 min 0 W/m 9,9 C 10,5 C 9,7 km/h (2 Bft)
21/12/2011 21:05 10,5 C 96 % 1024,4 hPa 0,0 mm 3,6 km/h (1 Bft) NO 315 0 min 0 W/m 9,9 C 10,5 C 6,8 km/h (2 Bft)
21/12/2011 21:10 10,5 C 96 % 1024,4 hPa 0,0 mm 15,1 km/h (3 Bft) NO 315 0 min 0 W/m 9,9 C 10,5 C 16,2 km/h (3 Bft)
21/12/2011 21:15 10,5 C 96 % 1024,5 hPa 0,0 mm 8,6 km/h (2 Bft) O-NO 292 0 min 0 W/m 9,9 C 10,5 C 9,7 km/h (2 Bft)
21/12/2011 21:20 10,5 C 96 % 1024,7 hPa 0,0 mm 9,0 km/h (2 Bft) NO 315 0 min 0 W/m 9,9 C 10,5 C 13,3 km/h (3 Bft)
21/12/2011 21:25 10,5 C 96 % 1024,8 hPa 0,0 mm 5,4 km/h (2 Bft) NO 315 0 min 0 W/m 9,9 C 10,5 C 5,4 km/h (2 Bft)
_ Min-Heure 07:15 00:45 10:10 - 19:30 - - - - 07:15 05:35 19:15
Minimum _ 6,3 C 93 % 1019,9 hPa - 0,0 km/h (0 Bft) - - - - 5,6 C 5,1 C 0,0 km/h (0 Bft)
_ Max-Heure 15:10 16:35 21:25 20:20 21:10 - - 21:25 21:25 15:00 15:10 12:20
Maximum _ 11,1 C 97 % 1024,8 hPa 0,1 mm 15,1 km/h
NO (3 Bft)
- - 0 min 0 W/m 10,6 C 11,1 C 18,0 km/h
O (3 Bft)
Moyenne _ 8,7 C 96 % 1021,7 hPa #5,1 mm 3,2 km/h (1 Bft) O-SO - #0 min. 0 W/m 8,1 C 8,6 C 6,1 km/h (2 Bft)
Saint Bonnet de Bellac- Haute Vienne - France